Flag for Indonesia Weather past 2 weeks in Makassar, South Sulawesi, Indonesia

Now
88 °F

Passing clouds.


Feels Like: 94 °F
Forecast: 73 / 89 °F
Wind: 9 mph from West

Location: Ujung Pandang / Hasanuddin

Current Time: Aug 22, 2014 at 4:56:47 PM

Latest Report: Aug 22, 2014 at 4:30 PM


Visibility: N/A

Pressure: 29.77 "Hg

Humidity: 59%

Dew point: 72 °F

Location of MakassarLocation

Historic Weather in Makassar — Graph

°F

Makassar temperature yesterday

Maximum temperature yesterday: 90 °F (at 10:30 AM)
Minimum temperature yesterday: 73 °F (at 3:00 AM)
Average temperature yesterday: 81 °F

Past Weeks' High & Low Weather Summary

 TemperatureHumidityPressure
High93 °F (Aug 18, 12:30 PM)100% (Aug 7, 11:00 PM)29.95 "Hg (Aug 7, 11:00 PM)
Low68 °F (Aug 11, 4:00 AM)34% (Aug 22, 1:30 PM)29.77 "Hg (Aug 8, 2:30 PM)
Average80 °F73%29.87 "Hg
* Reported Aug 7 5:00 PM — Aug 22 3:30 PM, Makassar, Weather by CustomWeather, © 2014

Note: Actual official high and low records may vary slightly from our data, if they occured in-between our weather recording intervals... More about our weather records

Advertising

Makassar weather history for previous 24 hours

 ConditionsComfort  
Time TempWeatherWind HumidityBarometerVisibility
3:30 PM
Aug 22
90 °FPassing clouds.10 mph55%29.77 "HgN/A
3:00 PM91 °FPassing clouds.12 mph49%29.77 "HgN/A
2:30 PM91 °FPassing clouds.9 mph52%29.77 "HgN/A
2:00 PM93 °FPassing clouds.8 mph34%29.77 "HgN/A
1:30 PM93 °FPassing clouds.10 mph34%29.77 "HgN/A
1:00 PM93 °FPassing clouds.10 mph39%29.80 "HgN/A
12:30 PM93 °FPassing clouds.13 mph39%29.80 "HgN/A
12:00 PM93 °FPassing clouds.8 mph41%29.83 "HgN/A
11:30 AM93 °FPassing clouds.7 mph41%29.83 "HgN/A
11:00 AM91 °FPassing clouds.8 mph46%29.86 "HgN/A
10:30 AM91 °FPassing clouds.5 mph46%29.86 "HgN/A
10:00 AM88 °FPassing clouds.8 mph52%29.89 "HgN/A
9:30 AM90 °FPassing clouds.6 mph55%29.89 "HgN/A
9:00 AM86 °FPassing clouds.3 mph59%29.89 "HgN/A
8:30 AM86 °FPassing clouds.3 mph59%29.89 "HgN/A
8:00 AM81 °FPassing clouds.3 mph70%29.89 "HgN/A
7:30 AM79 °FPassing clouds.2 mph70%29.89 "HgN/A
7:00 AM73 °FPassing clouds.2 mph89%29.89 "Hg6 mi
6:30 AM70 °FPassing clouds.3 mph88%29.89 "Hg6 mi
6:00 AM70 °FPassing clouds.3 mph94%29.86 "Hg6 mi
5:30 AM70 °FPassing clouds.3 mph94%29.86 "Hg5 mi
5:00 AM70 °FPassing clouds.3 mph94%29.86 "Hg5 mi
4:30 AM70 °FPassing clouds.3 mph94%29.86 "Hg5 mi
4:00 AM70 °FPassing clouds.3 mph94%29.86 "Hg5 mi
3:30 AM70 °FPassing clouds.3 mph94%29.86 "Hg5 mi
3:00 AM70 °FPassing clouds.3 mph94%29.83 "Hg5 mi
2:30 AM70 °FPassing clouds.2 mph94%29.86 "Hg5 mi
2:00 AM72 °FPassing clouds.No wind88%29.86 "Hg5 mi
1:30 AM72 °FPassing clouds.2 mph88%29.86 "Hg5 mi
1:00 AM73 °FPassing clouds.2 mph83%29.86 "Hg5 mi
12:30 AM73 °FPassing clouds.1 mph83%29.86 "Hg5 mi
12:00 AM75 °FPassing clouds.No wind78%29.86 "Hg5 mi
11:30 PM
Aug 21
77 °FPassing clouds.2 mph74%29.86 "Hg5 mi
11:00 PM77 °FPassing clouds.3 mph69%29.89 "Hg5 mi
10:30 PM77 °FPassing clouds.3 mph74%29.86 "Hg5 mi
10:00 PM77 °FPassing clouds.3 mph74%29.86 "Hg5 mi
9:30 PM77 °FPassing clouds.3 mph83%29.86 "Hg5 mi
9:00 PM79 °FPassing clouds.2 mph74%29.86 "Hg5 mi
8:30 PM81 °FPassing clouds.3 mph70%29.86 "Hg5 mi
8:00 PM81 °FPassing clouds.5 mph74%29.83 "Hg5 mi
7:30 PM81 °FPassing clouds.5 mph74%29.83 "Hg5 mi
7:00 PM82 °FPassing clouds.6 mph70%29.83 "Hg5 mi
6:30 PM84 °FPassing clouds.6 mph62%29.80 "HgN/A
6:00 PM86 °FScattered clouds.6 mph59%29.80 "HgN/A
5:30 PM88 °FPassing clouds.6 mph55%29.80 "HgN/A
5:00 PM90 °FPassing clouds.5 mph49%29.77 "HgN/A
4:30 PM90 °FPassing clouds.7 mph52%29.77 "HgN/A
4:00 PM90 °FPassing clouds.8 mph49%29.77 "HgN/A
Weather by CustomWeather, © 2014

See weather overviewHow to use our weather pages